www.pogodaiklimat.ru

Погода и климат >> Архив погоды >> Франция >> Сен-Бриё аэропорт


ПОГОДА в Сен-Бриё аэропорту

  • Прогноз погоды в Сен-Бриё аэропорту
  • Монитор погоды в Сен-Бриё аэропорту

АРХИВ ПОГОДЫ в Сен-Бриё аэропорту

Время (UTC), дата Ветер
(напр.,м/с)
 
Видим.   Явления Облачность Т
(С)
Тd
(С)
f
(%)
Тe
(С)
Тes
(С)
Комфортность P
(гПа)
Po
(гПа)
Тmin
(С)
Tmax
(С)
R
(мм)
R24
(мм)
S
(см)
19 15.09 С 1 18 км н/о +13.8 +12.9 94 +15 +15 1024.7 1008.5
20 15.09 СЗ 1 12 км н/о +11.9 +10.6 92 +13 +13 1024.8 1008.5
21 15.09 СЗ 1
{3}
6000 м 8/8 100 м
[]
+13.0 +13.0 100 +13 +13 1025.0 1008.7
22 15.09 З 1 3000 м дымка 9/9 210 м
[]
+12.2 +12.2 100 +12 +12 1024.9 1008.6
23 15.09 СЗ 1 300 м туман ?/? +11.8 +11.8 100 +11 +11 1024.8 1008.5
00 16.09 СЗ 2
{5}
3700 м дымка 8/8 50 м
[]
+13.2 +13.2 100 +13 +13 1024.5 1008.3
01 16.09 СЗ 2 2200 м дымка ?/? +12.2 +12.2 100 +11 +11 1024.3 1008.0
02 16.09 СЗ 2 6000 м 10/10 90 м
[]
+12.3 +12.3 100 +12 +12 1024.1 1007.8
03 16.09 З 2
{4}
6000 м 8/8 100 м
[]
+11.9 +11.9 100 +11 +11 1023.8 1007.5
04 16.09 З 2 6000 м 9/9 240 м
[]
+12.0 +11.8 99 +11 +11 1023.5 1007.2
05 16.09 З 1 3800 м дымка н/о +10.4 +10.2 99 +10 +10 1023.3 1006.9 0.2
06 16.09 СЗ 1
{4}
8000 м 10/10 200 м
[]
+12.3 +12.3 100 +12 +12 1023.7 1007.4 +10.3 +16.2 0.2
07 16.09 З 1 7000 м 10/10 240 м
[]
+13.0 +12.7 98 +13 +13 1023.8 1007.6
08 16.09 СЗ 2 13 км н/о +14.1 +13.3 95 +14 +14 1024.0 1007.8
09 16.09 СЗ 2
{5}
12 км 9/9 200 м
[]
+15.1 +13.5 90 +15 +16 1024.3 1008.2
10 16.09 С 1 19 км 10/10 330 м
[]
+17.1 +13.8 81 +18 +18 1024.2 1008.2
11 16.09 СЗ 1 20 км н/о +17.9 +14.4 80 +19 +19 1023.9 1007.9
12 16.09 С 1
{7}
20 км 10/10 300 м
[]
+18.4 +15.3 82 +20 +20 1023.6 1007.7
13 16.09 С 2 20 км 9/9 450 м
[]
+19.3 +15.8 80 +22 +23 комфорт 1023.3 1007.4
14 16.09 СВ 2 20 км н/о +19.2 +16.2 83 +21 +21 комфорт 1023.0 1007.1
15 16.09 СВ 3
{7}
17 км 9/9 300 м
[]
+18.3 +15.7 85 +19 +20 1022.9 1007.0
16 16.09 С 2 20 км 9/9 270 м
[]
+17.0 +15.0 88 +17 +18 1023.0 1007.0
17 16.09 С 2 20 км 10/10 210 м
[]
+16.0 +14.7 92 +16 +16 1022.8 1006.8
18 16.09 С 2
{7}
20 км 10/10 200 м
[]
+15.6 +14.5 93 +16 +16 1023.0 1006.9 +12.3 +20.2
19 16.09 СЗ 1 12 км 10/10 150 м
[]
+15.1 +14.8 98 +16 +16 1023.3 1007.2
20 16.09 С 1 11 км 10/10 120 м
[]
+15.0 +14.7 98 +15 +15 1023.6 1007.5
21 16.09 СЗ 2
{5}
20 км 10/10 200 м
[]
+15.1 +14.5 96 +15 +15 1023.5 1007.4
22 16.09 СЗ 1 20 км 10/10 300 м
[]
+15.3 +14.3 94 +16 +16 1023.5 1007.4
23 16.09 СЗ 1 20 км 10/10 360 м
[]
+15.4 +14.4 94 +16 +16 1023.5 1007.4
00 17.09 СЗ 2
{4}
20 км 10/10 300 м
[]
+15.4 +14.8 96 +15 +15 1022.9 1006.8
01 17.09 СЗ 1 18 км 10/10 330 м
[]
+15.5 +15.0 97 +16 +16 1022.7 1006.6
02 17.09 СЗ 1 16 км 10/10 150 м
[]
+15.6 +15.4 99 +16 +16 1022.5 1006.4
03 17.09 СЗ 1
{3}
17 км 10/10 100 м
[]
+15.7 +15.5 99 +17 +17 1022.4 1006.3
04 17.09 С 1 14 км 10/10 180 м
[]
+15.8 +15.6 99 +17 +17 1022.2 1006.2
05 17.09 С 1 12 км 10/10 300 м
[]
+15.8 +15.8 100 +17 +17 1022.4 1006.4
06 17.09 СВ 1
{2}
13 км 10/10 300 м
[]
+15.9 +15.9 100 +17 +17 1022.5 1006.5 +14.8 +15.9
07 17.09 СВ 1 8000 м 10/10 180 м
[]
+16.3 +16.3 100 +17 +17 1022.8 1006.8 0.0
08 17.09 СВ 2 20 км 10/10 210 м
[]
+17.0 +16.5 97 +17 +17 1023.1 1007.1 0.2
09 17.09 СВ 2
{5}
20 км 10/10 200 м
[]
+17.8 +17.0 95 +19 +19 1023.3 1007.4 0.2
10 17.09 СВ 2 20 км 10/10 210 м
[]
+18.2 +17.0 93 +19 +19 1023.4 1007.5
11 17.09 СВ 3 6000 м дождь 10/10 150 м
[]
+17.7 +17.1 96 +18 +18 1023.3 1007.4 0.2
12 17.09 СВ 3
{9}
9000 м 10/10 100 м
[]
+17.7 +17.2 97 +18 +18 1023.3 1007.4 0.2
13 17.09 СВ 4 11 км 10/10 240 м
[]
+17.4 +16.4 94 +17 +17 1023.4 1007.4
14 17.09 СВ 4 17 км 10/10 300 м
[]
+17.3 +15.8 91 +17 +17 1023.5 1007.5
15 17.09 СВ 4
{11}
19 км 10/10 300 м
[]
+17.7 +15.3 86 +18 +18 1023.3 1007.3
16 17.09 СВ 3 20 км н/о +18.0 +15.1 83 +18 +18 1023.1 1007.2
17 17.09 СВ 3 20 км н/о +17.0 +14.1 83 +17 +17 1023.2 1007.2
18 17.09 С 3
{10}
20 км н/о +15.4 +13.6 89 +15 +15 1023.2 1007.1 +15.4 +18.8
19 17.09 С 2 20 км н/о +14.8 +13.0 89 +14 +14 1023.4 1007.3
20 17.09 СВ 3 20 км 10/10 480 м
[]
+15.7 +13.2 85 +15 +15 1023.7 1007.6
21 17.09 СВ 3
{9}
20 км 9/9 300 м
[]
+15.0 +13.4 90 +14 +14 1024.0 1007.9
22 17.09 СВ 3 20 км 10/10 500 м
[]
+14.5 +12.2 86 +14 +14 1024.5 1008.3
23 17.09 В 2 20 км 9/9 600 м
[]
+14.3 +11.6 84 +14 +14 1024.7 1008.5
00 18.09 В 3
{9}
20 км н/о +14.2 +11.0 81 +13 +13 1024.6 1008.4
01 18.09 В 3 20 км н/о +14.1 +11.3 83 +13 +13 1024.7 1008.5
02 18.09 В 3 20 км 8/8 570 м
[]
+13.9 +11.1 83 +13 +13 1024.7 1008.5
03 18.09 В 2
{8}
20 км н/о +12.6 +10.8 89 +12 +12 1025.0 1008.7
04 18.09 В 2 20 км 8/8 540 м
[]
+12.9 +10.4 85 +12 +12 1025.0 1008.7
05 18.09 В 2 20 км н/о +12.3 +9.3 82 +11 +11 1025.2 1008.9
06 18.09 В 2
{8}
20 км н/о +12.1 +9.1 82 +11 +11 1025.7 1009.4 +11.6 +15.9
07 18.09 В 2 20 км н/о +13.2 +9.6 79 +12 +12 1026.4 1010.1
08 18.09 В 3 19 км н/о +14.2 +9.4 73 +13 +13 1026.5 1010.3
09 18.09 В 4
{12}
20 км н/о +14.9 +7.9 63 +14 +14 1026.8 1010.6
10 18.09 В 4 20 км н/о +15.6 +7.9 60 +15 +15 1026.8 1010.6
11 18.09 СВ 5 20 км н/о +15.8 +8.5 62 +15 +15 1026.7 1010.5
12 18.09 СВ 5
{13}
20 км н/о +16.5 +8.7 60 +16 +16 1026.6 1010.5
13 18.09 СВ 4 19 км н/о +17.2 +8.9 58 +17 +17 1026.5 1010.4
14 18.09 СВ 4 19 км н/о +17.5 +8.6 56 +17 +17 1026.2 1010.1
15 18.09 СВ 5
{13}
20 км н/о +17.4 +9.3 59 +17 +17 1026.0 1009.9
16 18.09 СВ 4 20 км н/о +17.2 +10.3 64 +17 +17 1025.8 1009.7
17 18.09 СВ 4 20 км н/о +16.5 +10.1 66 +16 +16 1025.8 1009.7
18 18.09 СВ 4
{12}
20 км н/о +15.2 +10.4 73 +14 +14 1026.0 1009.8 +12.0 +18.4
19 18.09 СВ 4 20 км н/о +14.8 +10.8 77 +14 +14 1026.6 1010.4
20 18.09 СВ 4 20 км н/о +14.6 +10.8 78 +13 +13 1026.9 1010.7
21 18.09 В 4
{13}
20 км н/о +14.3 +11.4 83 +13 +13 1027.3 1011.1
22 18.09 В 3 20 км 8/8 540 м
[]
+14.5 +11.6 83 +14 +14 1027.6 1011.4
23 18.09 В 3 20 км н/о +14.6 +11.2 80 +14 +14 1027.7 1011.5
00 19.09 В 3
{11}
20 км н/о +14.3 +11.1 81 +13 +13 1027.9 1011.7
01 19.09 В 3 20 км н/о +13.9 +10.9 82 +13 +13 1027.9 1011.6
02 19.09 В 2 20 км н/о +13.5 +10.7 83 +13 +13 1027.6 1011.3
03 19.09 В 2
{9}
20 км н/о +12.8 +10.0 83 +12 +12 1027.6 1011.3
04 19.09 В 2 20 км н/о +12.6 +9.2 80 +12 +12 1027.5 1011.2
05 19.09 В 2 20 км н/о +11.9 +9.1 83 +11 +11 1027.5 1011.1
06 19.09 В 2
{7}
20 км н/о +11.9 +9.1 83 +11 +11 1027.7 1011.3 +11.6 +15.3
07 19.09 В 2 20 км н/о +13.5 +10.3 81 +13 +13 1027.9 1011.6
08 19.09 В 3 20 км н/о +14.9 +10.5 75 +14 +14 1028.3 1012.1
09 19.09 В 4
{11}
19 км н/о +15.4 +8.6 64 +15 +15 1028.6 1012.4
10 19.09 В 3 20 км н/о +16.3 +8.5 60 +16 +16 1028.7 1012.5
11 19.09 СВ 4 20 км н/о +16.5 +9.7 64 +16 +16 1028.1 1012.0
12 19.09 В 4
{12}
20 км н/о +16.9 +9.6 62 +16 +16 1027.7 1011.6
13 19.09 СВ 5 20 км н/о +17.7 +10.1 61 +17 +17 1027.0 1011.0
14 19.09 СВ 5 20 км н/о +18.1 +9.7 58 +18 +18 1026.5 1010.5
15 19.09 СВ 4
{13}
20 км н/о +18.6 +10.2 58 +19 +19 1025.8 1009.8
16 19.09 СВ 5 20 км н/о +17.7 +11.3 66 +17 +17 1025.5 1009.5
17 19.09 СВ 5 20 км н/о +16.7 +11.8 73 +16 +16 1025.4 1009.3
18 19.09 СВ 4
{13}
20 км н/о +15.9 +12.3 79 +15 +15 1025.2 1009.1 +11.7 +18.8
19 19.09 В 3 20 км н/о +15.5 +11.9 79 +15 +15 1025.5 1009.4
20 19.09 В 3 20 км н/о +15.2 +12.0 81 +14 +14 1025.9 1009.7
21 19.09 В 3
{11}
20 км н/о +15.3 +11.9 80 +15 +15 1025.9 1009.7
22 19.09 В 3 20 км н/о +14.8 +11.9 83 +14 +14 1025.8 1009.6
23 19.09 В 2 20 км н/о +14.3 +10.7 79 +14 +14 1025.3 1009.1
00 20.09 В 2
{8}
20 км н/о +13.8 +9.4 75 +13 +13 1024.7 1008.5
01 20.09 В 2 20 км н/о +13.0 +7.9 71 +12 +12 1024.6 1008.3
02 20.09 В 2 20 км н/о +12.1 +7.2 72 +12 +12 1024.2 1007.9
03 20.09 В 1
{6}
20 км н/о +10.8 +6.5 75 +11 +11 1023.6 1007.2
04 20.09 В 2 20 км н/о +10.0 +6.3 78 +9 +9 1022.9 1006.5
05 20.09 ЮВ 1 20 км н/о +9.2 +6.1 81 +10 +10 1022.6 1006.1
06 20.09 В 3
{4}
20 км н/о +8.9 +5.8 81 +7 +7 1022.1 1005.6 +7.6 +15.9
07 20.09 ЮВ 1 20 км н/о +10.6 +6.3 75 +11 +11 1022.0 1005.6
08 20.09 ЮВ 2 20 км н/о +12.3 +6.1 66 +11 +11 1021.8 1005.5
09 20.09 ЮВ 2
{8}
20 км н/о +13.8 +6.4 61 +13 +13 1020.9 1004.7
10 20.09 В 3 20 км н/о +16.7 +7.1 53 +17 +17 1019.9 1003.9
11 20.09 В 2 20 км н/о +19.2 +5.6 41 +20 +20 1019.1 1003.2
12 20.09 В 3
{10}
20 км н/о +21.1 +5.4 36 +22 +22 комфорт 1018.2 1002.5
13 20.09 В 3 20 км н/о +22.4 +4.4 31 +23 +23 комфорт 1017.2 1001.5
14 20.09 В 3 20 км н/о +23.6 +4.5 29 +23 +23 комфорт 1016.3 1000.7
15 20.09 ЮВ 3
{9}
20 км н/о +23.7 +4.6 29 +23 +23 комфорт 1015.6 1000.0
16 20.09 ЮВ 3 20 км н/о +23.5 +5.4 31 +23 +23 комфорт 1014.9 999.3
17 20.09 ЮВ 2 20 км н/о +22.9 +5.3 32 +23 +23 комфорт 1014.6 999.0
18 20.09 ЮВ 1
{8}
19 км н/о +21.0 +5.7 37 +23 +23 комфорт 1014.5 998.8 +8.8 +24.1
19 20.09 ЮВ 2 20 км н/о +19.1 +5.5 41 +20 +20 1014.3 998.5
20 20.09 ЮВ 1 20 км н/о +17.7 +5.9 46 +19 +19 1014.1 998.2
21 20.09 Ю 1
{4}
20 км н/о +16.9 +6.1 49 +18 +18 1013.9 998.0
22 20.09 ЮВ 1 20 км н/о +16.1 +6.2 52 +17 +17 1013.4 997.5
23 20.09 ЮВ 2 20 км н/о +17.5 +6.1 47 +18 +18 1012.5 996.7
00 21.09 ЮВ 2
{6}
20 км н/о +17.8 +6.0 46 +19 +19 1011.8 996.0
01 21.09 ЮВ 2 20 км н/о +17.5 +6.1 47 +18 +18 1011.1 995.3
02 21.09 ЮВ 2 20 км н/о +16.8 +6.3 50 +17 +17 1010.5 994.6
03 21.09 ЮВ 2
{4}
20 км н/о +15.7 +6.9 56 +16 +16 1009.9 994.0
04 21.09 ЮВ 2 20 км н/о +17.0 +8.9 59 +18 +18 1009.3 993.5
05 21.09 Ю 2 20 км н/о +17.9 +10.8 63 +18 +18 1009.2 993.4
06 21.09 Ю 2
{9}
20 км н/о +17.8 +12.0 69 +18 +18 1009.1 993.3 +15.6 +21.0
07 21.09 Ю 2 20 км н/о +18.1 +12.8 71 +19 +19 1008.9 993.2
08 21.09 Ю 3 20 км н/о +19.7 +14.3 71 +22 +22 комфорт 1008.5 992.9
09 21.09 Ю 3
{10}
20 км н/о +22.6 +15.9 66 +27 +27 душно 1008.1 992.6
10 21.09 Ю 4 20 км 9/9
[]
+23.5 +15.5 61 +27 +27 душно 1007.4 992.0
11 21.09 Ю 3 20 км 10/10
[]
+24.4 +16.4 61 +28 +28 душно 1007.3 991.9
12 21.09 Ю 4
{14}
20 км н/о +25.2 +16.3 58 +29 +29 душно 1006.8 991.5
13 21.09 Ю 4 20 км 10/1 1260 м
[]
+24.7 +16.1 59 +28 +31 душно 1006.4 991.1
14 21.09 Ю 4 20 км н/о +25.5 +16.1 56 +29 +29 душно 1006.2 990.9
15 21.09 Ю 3
{13}
20 км 10/10 1000 м
[]
+23.4 +16.4 65 +28 +30 душно 1006.2 990.8
16 21.09 Ю 3 20 км 10/10
[]
+22.9 +16.9 69 +28 +28 душно 1005.7 990.3
17 21.09 Ю 3 20 км н/о +22.1 +16.4 70 +26 +26 душно 1005.0 989.6
18 21.09 Ю 3
{10}
20 км 10/0
[]
+21.5 +15.6 69 +25 +25 комфорт 1004.8 989.3 +17.8 +26.2
19 21.09 Ю 2 20 км н/о +20.5 +15.5 73 +24 +24 комфорт 1004.6 989.1
20 21.09 Ю 2 20 км 8/8
[]
+19.5 +15.8 79 +22 +22 комфорт 1004.5 988.9
21 21.09 ЮВ 2
{6}
20 км 9/0
[]
+19.0 +15.5 80 +21 +21 комфорт 1004.1 988.5
22 21.09 Ю 2 20 км 8/8
[]
+19.0 +15.3 79 +21 +21 комфорт 1003.5 987.9
23 21.09 Ю 2 20 км 10/10
[]
+18.9 +15.2 79 +21 +21 комфорт 1002.9 987.3
00 22.09 Ю 2
{9}
20 км 10/10 300 м
[]
+18.9 +15.2 79 +21 +21 комфорт 1003.0 987.4
01 22.09 Ю 3 20 км 10/3 600 м
[]
+18.8 +15.8 83 +20 +20 1003.1 987.5
02 22.09 З 4 20 км 10/10 300 м
[]
+16.3 +14.3 88 +16 +16 1003.1 987.4 0.0
03 22.09 ЮЗ 1
{9}
14 км дождь 10/10 300 м
[]
+15.4 +13.9 91 +16 +16 1003.3 987.5 0.4
04 22.09 ЮВ 1 17 км слаб. дождь 10/10 2000 м
[]
+14.6 +14.3 98 +15 +15 1002.2 986.4 2
05 22.09 Ю 2 19 км слаб. дождь 10/1 660 м
[]
+14.9 +14.1 95 +15 +15 1002.7 986.9 0.8
06 22.09 Ю 1
{5}
20 км 10/10 1000 м
[]
+14.5 +14.0 97 +15 +15 1003.3 987.5 +14.4 +21.5 3
07 22.09 Ю 2 10 км 10/10 330 м
[]
+14.7 +14.2 97 +15 +15 1003.5 987.7
08 22.09 Ю 2 15 км 10/10 360 м
[]
+15.2 +14.7 97 +15 +15 1003.7 987.9 0.0
09 22.09 Ю 3
{9}
20 км 8/8 300 м
[]
+16.8 +14.6 87 +17 +17 1003.9 988.2 0.0
10 22.09 ЮЗ 3 19 км 9/9 720 м
[]
+17.9 +13.2 74 +18 +19 1004.2 988.5 0.2
11 22.09 ЮЗ 3 16 км 9/8 870 м
[]
+17.7 +13.2 75 +18 +19 1004.8 989.1
12 22.09 ЮЗ 4
{13}
20 км н/о +18.9 +12.2 65 +20 +20 1004.6 989.0 0.2
13 22.09 ЮЗ 3 20 км н/о +18.7 +12.9 69 +20 +20 1005.2 989.6
14 22.09 ЮЗ 3 20 км н/о +19.3 +11.6 61 +21 +21 комфорт 1005.2 989.6
15 22.09 ЮЗ 4 20 км н/о +19.3 +11.3 60 +20 +20 1005.4 989.8
16 22.09 З 3 18 км 9/9 1000 м
[]
+16.7 +13.0 79 +16 +17 1006.3 990.5
17 22.09 З 2 10 км сильн. дождь 9/6 720 м
[]
+15.3 +13.8 91 +15 +15 1007.1 991.3 1

 

Местоположение метеостанции Сен-Бриё аэропорт (Франция): широта 48.53 долгота -2.85 высота над уровнем моря 138 м.

В архиве по умолчанию представлена погода в Сен-Бриё аэропорту за последнюю неделю. Архивные данные за месяц целиком и за предыдущие месяцы, начиная с января 2011 года, Вы можете получить, выбрав интересующий диапазон дат из раскрывающегося списка и нажав кнопку "Ввод!".


*Определитесь, кто Вы:
робот инопланетянин человек

Внимание! Время в таблицах - всемирное. Для получения местного времени необходимо прибавить поправку, которая равна 1 ч.

Смотрите также архив погоды в соседних городах и на ближайших метеорологических станциях:

Погода в Ланьоне (Франция) (52 км)
Погода в Перрос-Гиреке (Франция) (56 км)
Погода в Динаре (Франция) (58 км)
Погода в Иль-де-Ба (Франция) (89 км)
Погода в Аэропорту Джерси (Великобритания) (90 км)
Погода в Лорьене (Франция) (96 км)
Погода в Ландивизио (Франция) (96 км)
Погода на Пуэнт-дю-Оке (Франция) (96 км)
Погода в Ренне (Франция) (97 км)
Погода в Аэропорту Гернси (Великобритания) (102 км)

Пояснения к столбцам:

Ветер - указаны скорость ветра в м/с - средняя за 10 мин, порывы в срок и между сроками (в фигурных скобках) и направление, откуда дует ветер: С - северный, СВ - северо-восточный, В - восточный, ЮВ - юго-восточный, Ю - южный, ЮЗ - юго-западный, З - западный, СЗ - северо-западный.
Видимость - горизонтальная дальность видимости в метрах или километрах. При видимости от 1 до 10 км при отсутствии осадков обычно наблюдается дымка, при ухудшении видимости до 1 км и менее - туман. В сухую погоду видимость может ухудшаться дымом, пылью или мглою.
Явления - указаны атмосферные явления, наблюдавшиеся в срок или в последний час перед сроком; фигурными скобками обозначены явления, наблюдавшиеся между сроками (за 1-3 часа до срока); квадратными скобками обозначены град или гололедные отложения с указанием их диаметра в мм.
Облачность - указаны через наклонную черту общая и нижняя облачность в баллах и высота нижней границы облаков в метрах; квадратными скобками обозначены формы облаков: Ci - перистые, Cs - перисто-слоистые, Cc - перисто-кучевые, Ac - высококучевые, As - высокослоистые, Sc - слоисто-кучевые, Ns - слоисто-дождевые, Cu - кучевые, Cb - кучево-дождевые. Подробнее классификацию облаков см. в Атласе облаков (PDF).
T - Температура воздуха - температура, измеренная на высоте 2 м над землей.
Td - Температура точки росы - температура, при понижении до которой содержащийся в воздухе водяной пар достигнет насыщения.
f - Относительная влажность воздуха - влажноcть воздуха, измеренная на высоте 2 м над землей.
Te - Эффективная температура - температура, которую ощущает одетый по сезону человек в тени. Характеристика душности погоды. При расчете учитывается влияние влажности воздуха и скорости ветра на теплоощущения человека.
Tes - Эффективная температура на солнце - температура, которую ощущает человек, с поправкой на солнечный нагрев. Характеристика знойности погоды. Зависит от высоты солнца над горизонтом, облачности и скорости ветра. Ночью, в пасмурную погоду, а также при ветре 12 м/с и более поправка равна нулю.
P - Атмосферное давление - приведенное к уровню моря атмосферное давление.
Po - Атмосферное давление - измеренное на уровне метеостанции атмосферное давление.
Tmin - Минимальная температура - минимум температуры воздуха на высоте 2 м над землей.
Tmax - Максимальная температура - максимум температуры воздуха на высоте 2 м над землей.
R - Количество осадков - Количество выпавших осадков за период времени, мм. При наведении курсора мыши на число - период времени, за который выпало указанное количество осадков.
R24 - Количество осадков - Количество выпавших осадков за 24 часа, мм.
S - Снежный покров - Высота снежного покрова, см. При наведении курсора мыши на число - состояние снежного покрова и степень покрытия местности в баллах.